Das Wetter in  D-61279 Heinzenberg / Taunus





Wetter Minimum- & Maximum-Werte im November 2017

Standort: Heinzenberg / Taunus - Höhe 297 m         8° 24' 1" Ost 50° 21' 51" Nord
(   3-stündige Aktualisierung    letzte Aktualisierung um 20:46 am 30.11.2017  )


Messgrösse

Minimum

Maximum

Durchschnitt

Temperatur West /
Luftfeuchte West
Anklicken für Monats-Diagramm

-1,4 °C

23:10
28.11.2017

60 %

15:36
01.11.2017

15,7 °C

15:21
01.11.2017

93 %

03:13
09.11.2017

Temp

5,3 °C

Feuchte

86 %

Temperatur Ost /
Luftfeuchte Ost
Anklicken für Monats-Diagramm

-1,0 °C

22:46
28.11.2017

--

--
--

16,0 °C

15:46
01.11.2017

--

--
--

5,4 °C

--

Luftdruck Anklicken für Monats-Diagramm

999,1 hPa

14:55
12.11.2017

1026,9 hPa

07:33
15.11.2017

1015,4 hPa

Taupunkt

-3,0 °C

23:10
28.11.2017

9,6 °C

12:44
04.11.2017

3,1 °C

Windchill
( gefühlte Temperatur )

-12,4 °C

06:23
26.11.2017

15,7 °C

15:21
01.11.2017

2,5 °C

Windgeschwindigkeit /
Windrichtung
Anklicken für Monats-Diagramm

---

44,7 km/h / W-SW

22:09
27.11.2017

8,3 km/h
W-SW

Helligkeit /
Sonnenschein
Anklicken für Monats-Diagramm
Anklicken für Monats-Diagramm

Sonnenschein:

37:40 Stunden

Max: 6:05 Std am
02.11.2017

63,2 klux

12:59
04.11.2017

9,6 klux

Solarstrahlung Anklicken für Monats-Diagramm

---

432 W/m²

12:59
04.11.2017

73 W/m²

Regenmenge
    November 2017
Anklicken für Monats-Diagramm

Insgesamt 74,5 l/m²

in 139:56 Stunden
an 23 Tagen

16,6 l/m²

06:35
05.11.2017

Gesamtmenge

74,5 l/m²

Regen-Tage
    November 2017
Anklicken für Monats-Diagramm

>   0 mm/Tag

>   2 mm/Tag

>   5 mm/Tag

> 10 mm/Tag

> 20 mm/Tag

23 Tage     
10 Tage     
5 Tage     
2 Tage     
0 Tage     

Eisige Tage November 2017 / 2016

Tmin ≤ -10°C     

0 Tage

/

0 Tage

Eistage November 2017 / 2016

Tmax <     0°C     

0 Tage

/

0 Tage

Frosttage November 2017 / 2016

Tmin ≤     0°C     

7 Tage

/

10 Tage

Kalte Tage November 2017 / 2016

Tmax <   10°C     

22 Tage

/

20 Tage

Warme Tage November 2017 / 2016

Tmax ≥   20°C     

0 Tage

/

0 Tage

Sommertage November 2017 / 2016

Tmax ≥   25°C     

0 Tage

/

0 Tage

Heisse Tage November 2017 / 2016

Tmax ≥   30°C     

0 Tage

/

0 Tage


Monatsdiagramm November 2017

Die Kurven zeigen den Durchschnittswert des jeweiligen Tages an


Wetter-Monatsübersicht November 2017
Datum
  Temperatur
   Luftdruck
   Wind
  Regen
   Luftfeuchte
   Helligkeit

Sonnen-
schein

Ø
Temp.

Min.
Temp.

Max.
Temp.

Ø
Luftdruck

Min.
Luftdruck

Max.
Luftdruck

Ø-Geschw.
Haupt-Richtg.

Max.
Wind

Menge /
Dauer

Ø
Feuchte

Min.
Feuchte

Max.
Feuchte

Ø
Helligkeit

Max.
Helligkeit

1.
November
9,4 °C6,1 °C
23:47
15,7 °C
15:21
1021,5 hPa1018,3 hPa
22:22
1024,4 hPa
01:26
6,3 km/h
W-SW
22,3 km/h
09:56  
---
75 %60 %
15:36
83 %
23:12
24,4 klux57,5 klux
10:56
5:25 Std 
2.
November
8,3 °C4,7 °C
08:12
15,2 °C
14:12
1014,3 hPa1012,1 hPa
14:12
1018,4 hPa
00:02
6,4 km/h
W
33,9 km/h
11:17  
---
5 Minuten
78 %64 %
14:17
86 %
01:57
25,5 klux50,1 klux
12:17
6:05 Std 
3.
November
7,7 °C2,9 °C
23:44
15,0 °C
13:53
1016,1 hPa1014,3 hPa
15:08
1017,5 hPa
02:18
0,0 km/h
N
0,0 km/h
00:03  
---
45 Minuten
80 %60 %
15:03
89 %
08:58
21,0 klux58,2 klux
13:08
3:55 Std 
4.
November
8,0 °C2,0 °C
04:44
13,6 °C
13:09
1009,6 hPa1006,2 hPa
22:30
1013,7 hPa
01:24
3,2 km/h
SW
22,1 km/h
12:24  
---
5 Minuten
84 %75 %
13:19
91 %
11:04
16,5 klux63,2 klux
12:59
2:35 Std 
5.
November
7,8 °C4,1 °C
23:51
12,0 °C
00:00
1008,9 hPa1003,3 hPa
06:05
1016,6 hPa
23:51
4,8 km/h
W-NW
34,8 km/h
18:00  
16,6 l/m²
11:15 Stunden
89 %82 %
00:00
91 %
07:55
5,7 klux14,0 klux
13:00
--- 
6.
November
4,3 °C2,3 °C
08:11
7,6 °C
14:51
1022,1 hPa1016,6 hPa
00:01
1026,1 hPa
23:57
0,4 km/h
NW
6,9 km/h
10:41  
---
88 %80 %
15:11
92 %
09:46
11,7 klux33,0 klux
09:36
45 Min 
7.
November
3,7 °C-0,8 °C
03:22
7,2 °C
12:37
1021,0 hPa1016,4 hPa
22:17
1026,1 hPa
00:12
0,1 km/h
SO
3,0 km/h
11:47  
---
89 %86 %
13:42
92 %
06:37
9,7 klux50,5 klux
11:32
50 Min 
8.
November
6,2 °C5,2 °C
03:07
7,0 °C
15:37
1017,2 hPa1015,4 hPa
07:42
1020,4 hPa
23:48
0,0 km/h
N
0,0 km/h
00:02  
---
45 Minuten
91 %88 %
00:02
92 %
13:07
1,7 klux3,3 klux
13:02
--- 
9.
November
6,4 °C4,9 °C
20:48
7,5 °C
10:48
1022,2 hPa1020,4 hPa
00:03
1023,7 hPa
20:48
1,9 km/h
W
12,8 km/h
22:24  
1,1 l/m²
3:35 Stunden
91 %89 %
19:23
93 %
03:13
5,43 klux23,20 klux
10:48
--- 
10.
November
5,8 °C4,5 °C
22:44
7,4 °C
17:29
1016,9 hPa1013,0 hPa
17:29
1023,7 hPa
00:04
15,4 km/h
W-SW
35,6 km/h
17:49  
1,1 l/m²
8:55 Stunden
88 %83 %
20:29
91 %
06:39
4,2 klux17,2 klux
10:44
--- 
11.
November
5,1 °C3,9 °C
05:59
6,4 °C
16:44
1010,6 hPa1005,9 hPa
16:44
1015,5 hPa
02:29
12,7 km/h
W-SW
29,3 km/h
05:29  
3,5 l/m²
9:26 Stunden
87 %81 %
09:24
92 %
18:09
5,6 klux13,1 klux
12:19
--- 
12.
November
3,0 °C2,0 °C
18:45
4,2 °C
00:00
1003,9 hPa999,1 hPa
14:55
1009,4 hPa
01:25
4,1 km/h
W
22,7 km/h
18:30  
4,4 l/m²
9:06 Stunden
92 %91 %
01:05
93 %
09:30
3,7 klux12,1 klux
11:40
--- 
13.
November
3,8 °C-0,3 °C
23:47
9,2 °C
15:16
1014,9 hPa1006,4 hPa
00:01
1023,4 hPa
23:52
5,5 km/h
NW
21,1 km/h
14:31  
0,3 l/m²
1:35 Stunden
87 %70 %
15:56
93 %
00:01
15,6 klux48,7 klux
13:26
2:50 Std 
14.
November
3,8 °C-0,2 °C
00:02
9,8 °C
14:02
1024,8 hPa1022,3 hPa
00:22
1026,1 hPa
09:37
3,3 km/h
W-SW
21,5 km/h
13:12  
---
84 %70 %
14:07
92 %
08:27
19,0 klux63,1 klux
13:27
4:00 Std 
15.
November
5,9 °C4,3 °C
07:33
8,9 °C
13:03
1026,1 hPa1025,3 hPa
13:13
1026,9 hPa
07:33
1,0 km/h
O-SO
11,7 km/h
23:59  
---
85 %82 %
13:08
89 %
08:28
9,5 klux48,2 klux
12:43
40 Min 
16.
November
3,9 °C3,1 °C
08:49
5,7 °C
00:04
1024,7 hPa1023,8 hPa
14:19
1026,0 hPa
11:09
2,0 km/h
SO
12,2 km/h
01:19  
---
5 Minuten
88 %84 %
00:04
91 %
10:34
4,3 klux11,0 klux
11:24
--- 
17.
November
4,9 °C3,5 °C
00:00
6,4 °C
12:25
1025,4 hPa1024,8 hPa
20:10
1026,8 hPa
10:55
0,4 km/h
NW
10,1 km/h
10:45  
1,7 l/m²
2:06 Stunden
91 %89 %
00:00
92 %
07:45
5,5 klux19,6 klux
11:40
--- 
18.
November
3,0 °C-0,2 °C
08:16
4,3 °C
00:41
1020,6 hPa1015,5 hPa
22:46
1025,0 hPa
02:56
14,5 km/h
W
37,5 km/h
13:11  
---
2:30 Stunden
86 %75 %
15:31
93 %
09:46
9,1 klux50,7 klux
11:11
50 Min 
19.
November
3,5 °C1,8 °C
07:51
5,3 °C
14:21
1016,7 hPa1013,6 hPa
02:56
1020,8 hPa
22:22
16,4 km/h
W
31,5 km/h
14:16  
3,2 l/m²
13:51 Stunden
89 %84 %
00:01
91 %
04:11
7,0 klux36,6 klux
10:56
40 Min 
20.
November
3,3 °C2,2 °C
11:22
6,4 °C
23:38
1018,2 hPa1012,1 hPa
23:38
1021,0 hPa
11:22
17,1 km/h
W-SW
39,3 km/h
22:02  
5,3 l/m²
16:16 Stunden
90 %87 %
09:42
93 %
20:57
4,5 klux10,8 klux
11:57
--- 
21.
November
7,7 °C6,4 °C
00:03
8,7 °C
11:53
1012,8 hPa1011,9 hPa
05:53
1014,0 hPa
10:13
20,4 km/h
W-SW
39,0 km/h
10:38  
1,2 l/m²
7:20 Stunden
89 %84 %
22:03
93 %
00:03
4,6 klux16,1 klux
11:43
--- 
22.
November
8,8 °C6,6 °C
02:54
14,5 °C
15:19
1009,8 hPa1006,4 hPa
21:44
1013,1 hPa
00:19
9,9 km/h
W-SW
32,0 km/h
03:49  
---
77 %64 %
15:34
85 %
00:04
19,1 klux42,8 klux
12:59
4:50 Std 
23.
November
11,1 °C8,8 °C
05:20
13,4 °C
18:35
1007,0 hPa1004,5 hPa
06:15
1010,5 hPa
22:36
24,4 km/h
W-SW
42,7 km/h
06:00  
0,6 l/m²
1:45 Stunden
71 %65 %
12:20
83 %
21:35
8,7 klux49,4 klux
11:45
1:05 Std 
24.
November
9,9 °C7,0 °C
22:37
12,4 °C
13:06
1009,7 hPa1007,4 hPa
10:16
1012,1 hPa
22:37
16,1 km/h
W-SW
44,6 km/h
04:11  
2,0 l/m²
5:05 Stunden
83 %75 %
13:21
90 %
21:41
4,3 klux18,9 klux
09:41
10 Min 
25.
November
4,5 °C1,2 °C
23:53
7,3 °C
04:42
1011,1 hPa1005,9 hPa
06:57
1019,0 hPa
23:53
6,6 km/h
W-NW
27,9 km/h
10:47  
7,1 l/m²
11:40 Stunden
91 %90 %
00:02
92 %
10:22
3,0 klux12,6 klux
11:27
--- 
26.
November
2,1 °C0,7 °C
07:18
3,3 °C
14:43
1021,7 hPa1019,0 hPa
01:18
1024,0 hPa
18:58
19,4 km/h
W-SW
32,0 km/h
06:23  
---
85 %80 %
14:48
91 %
00:03
8,1 klux26,7 klux
10:23
30 Min 
27.
November
3,2 °C1,1 °C
07:24
5,5 °C
23:10
1017,7 hPa1008,1 hPa
23:50
1024,2 hPa
03:24
24,4 km/h
W-SW
44,7 km/h
22:09  
11,7 l/m²
10:20 Stunden
85 %81 %
00:09
90 %
13:44
5,8 klux13,3 klux
12:04
--- 
28.
November
2,9 °C-1,4 °C
23:10
5,7 °C
01:10
1006,6 hPa1005,4 hPa
17:45
1008,1 hPa
00:10
11,1 km/h
W-SW
38,6 km/h
01:15  
8,8 l/m²
8:15 Stunden
88 %82 %
16:45
92 %
10:55
10,4 klux48,9 klux
12:10
1:05 Std 
29.
November
1,2 °C-1,1 °C
00:11
4,1 °C
15:46
1005,2 hPa1003,4 hPa
06:26
1005,9 hPa
00:11
0,7 km/h
W-SW
11,5 km/h
14:16  
3,3 l/m²
7:21 Stunden
90 %88 %
16:01
91 %
02:01
6,7 klux47,6 klux
12:11
45 Min 
30.
November
0,6 °C-0,6 °C
06:07
2,2 °C
14:02
1004,5 hPa1003,4 hPa
14:02
1005,7 hPa
00:07
0,6 km/h
SW
14,6 km/h
19:37  
2,6 l/m²
7:50 Stunden
91 %90 %
13:57
92 %
01:27
8,7 klux30,0 klux
11:42
40 Min 



November
2017

Temperatur

  

Luftdruck

  

Wind

  

Regen

  

Luftfeuchte

  

Helligkeit

Sonnen-
schein

Ø

Min

Max

Ø

Min

Max

Ø

Max

Max

Ø

Min

Max

Ø

Max

Max

5,3 °C

-1,4 °C

23:10 Uhr
28.11.2017

15,7 °C

15:21 Uhr
01.11.2017

1015,4 hPa

999,1 hPa

14:55 Uhr
12.11.2017

1026,9 hPa

07:33 Uhr
15.11.2017

8,3 km/h

W-SW

44,7 km/h

22:09 Uhr
27.11.2017

16,6 l/m²

11:15 Stunden
05.11.2017

86 %

60 %

15:36 Uhr
01.11.2017

93 %

03:13 Uhr
09.11.2017

9,6 klux

63,2 klux

12:59 Uhr
04.11.2017

6:05 Std

am
02.11.2017

Gesamt

Gesamt

74,5 l/m²

23 Tage
139:56 h

37:40 Std


Wetter-Diagramme November 2017     Heinzenberg / Taunus   
TemperaturLuftfeuchte
SolarstrahlungLuftdruck
HelligkeitSonnenschein
RegenmengeRegendauer
Wind-GeschwindigkeitWind-Richtung